Location: Unspecified
(0.0000°N, 0.0000°E)
Time: 17:06:47
(UTC+00:00)

PRISM - Pass Details

Date: 05 July 2022
Orbit: 554 x 578 km, 98.2° (Epoch: 10 August)

Event Time Altitude Azimuth Distance (km) Brightness Sun altitude
Rises 04:27:30 0° 17° (NNE) 2,720 ? -22.3°
Reaches altitude 10° 04:29:38 10° 20° (NNE) 1,831 ? -21.8°
Maximum altitude 04:33:33 64° 102° (ESE) 618 ? -20.9°
Enters shadow 04:35:42 26° 177° (S) 1,132 ? -20.4°
